Trieste, Italy

1:34 PM CET on December 03, 2016 (GMT +0100)
Trieste

Weather History for LIVT - October, 2014

Change the Weather History Date:

Friday, October 31, 2014

  Actual Average Record
Temperature  
Mean Temperature 60 °F -  
Max Temperature 67 °F 54 °F 71 °F (2004)
Min Temperature 53 °F 46 °F 42 °F (1997)
Degree Days  
Heating Degree Days 5    
Growing Degree Days 10 (Base 50)    
Moisture  
Dew Point 42 °F    
Average Humidity 49    
Maximum Humidity 59    
Minimum Humidity 32    
Precipitation  
Precipitation 0.00 in 0.15 in - ()
Sea Level Pressure  
Sea Level Pressure 30.26 in    
Wind  
Wind Speed 12 mph ()    
Max Wind Speed 16 mph    
Max Gust Speed 38 mph    
Visibility 10.2 miles    
Events      
Averages and records for this station are not official NWS values.
T = Trace of Precipitation, MM = Missing Value Source: Averaged Metar Reports

Daily Weather History Graph

Daily Weather History Graph

Search for Another Location

Airport or City:

Trip Planner

Search our weather history database for the weather conditions in past years. The results will help you decide how hot, cold, wet, or windy it might be!

Date:

Astronomy

Oct. 31, 2014 Rise Set
Actual Time 6:43 AM CET 4:53 PM CET
Civil Twilight 6:12 AM CET 5:24 PM CET
Nautical Twilight 5:37 AM CET 5:59 PM CET
Astronomical Twilight 5:02 AM CET 6:33 PM CET
Moon 1:15 PM CET (10/31) No Moon Set
Length of Visible Light 11h 12m
Length of Day
10h 10m
First Quarter, 54% of the Moon is Illuminated
Oct 31
First Quarter
Nov 6
Full
Nov 14
Last Quarter
Nov 22
New
Nov 29
First Quarter

Hourly Weather History & Observations

Time (CET) Temp. Dew Point Humidity Pressure Visibility Wind Dir Wind Speed Gust Speed Precip Events Conditions
12:00 AM 54 °F 38 °F 43% 30.27 in 6 mi NE 16.1 mph - -  
12:55 AM 53.6 °F 39.2 °F 58% 30.27 in - NE 15.0 mph 35.7 mph N/A   Clear
1:00 AM 54 °F 38 °F 44% 30.28 in 6 mi NE 15.0 mph - -  
1:55 AM 53.6 °F 39.2 °F 58% 30.27 in - NE 13.8 mph 34.5 mph N/A   Clear
2:00 AM 53 °F 39 °F 47% 30.28 in 6 mi NE 13.8 mph - -  
2:55 AM 53.6 °F 39.2 °F 58% 30.27 in - NE 13.8 mph 27.6 mph N/A   Clear
3:00 AM 54 °F 39 °F 46% 30.28 in 6 mi NE 13.8 mph - -  
3:55 AM 53.6 °F 39.2 °F 58% 30.27 in - NE 15.0 mph 32.2 mph N/A   Clear
4:00 AM 54 °F 39 °F 45% 30.28 in 6 mi NE 15.0 mph - -  
4:55 AM 53.6 °F 39.2 °F 58% 30.24 in - NE 15.0 mph 31.1 mph N/A   Clear
5:00 AM 54 °F 39 °F 45% 30.27 in 6 mi NE 15.0 mph - -  
5:55 AM 53.6 °F 39.2 °F 58% 30.24 in - NE 16.1 mph 32.2 mph N/A   Clear
6:00 AM 54 °F 39 °F 45% 30.27 in 6 mi NE 16.1 mph - -  
6:55 AM 53.6 °F 39.2 °F 58% 30.24 in - NE 16.1 mph 34.5 mph N/A   Clear
7:00 AM 54 °F 39 °F 46% 30.27 in 12 mi NE 16.1 mph - -   Clear
7:55 AM 53.6 °F 39.2 °F 58% 30.27 in - NNE 16.1 mph 38.0 mph N/A   Clear
8:00 AM 53 °F 39 °F 47% 30.27 in 12 mi NNE 16.1 mph - -   Clear
8:55 AM 57.2 °F 41.0 °F 55% 30.27 in - NNE 15.0 mph 36.8 mph N/A   Clear
9:00 AM 57 °F 41 °F 43% 30.28 in 12 mi NNE 15.0 mph - -   Clear
9:55 AM 59.0 °F 41.0 °F 51% 30.27 in - NE 13.8 mph 31.1 mph N/A   Clear
10:00 AM 59 °F 42 °F 41% 30.29 in 12 mi NE 13.8 mph - -   Clear
10:55 AM 62.6 °F 42.8 °F 48% 30.27 in - NE 10.4 mph 23.0 mph N/A   Clear
11:00 AM 62 °F 43 °F 38% 30.29 in 12 mi NE 10.4 mph - -   Clear
11:55 AM 64.4 °F 42.8 °F 45% 30.27 in - Variable 3.5 mph - N/A   Clear
12:00 PM 65 °F 44 °F 34% 30.29 in 12 mi 3.5 mph - -   Clear
12:55 PM 66.2 °F 44.6 °F 46% 30.27 in - NE 5.8 mph 17.3 mph N/A   Clear
1:00 PM 66 °F 44 °F 33% 30.28 in 12 mi NE 5.8 mph - -  
1:55 PM 66.2 °F 44.6 °F 46% 30.24 in - NE 6.9 mph 18.4 mph N/A   Clear
2:00 PM 67 °F 44 °F 32% 30.27 in 12 mi NE 6.9 mph - -  
2:55 PM 64.4 °F 48.2 °F 56% 30.24 in - NNE 5.8 mph - N/A   Clear
3:00 PM 65 °F 48 °F 43% 30.27 in 12 mi NNE 5.8 mph - -  
3:55 PM 64.4 °F 44.6 °F 49% 30.24 in - ENE 9.2 mph - N/A   Clear
4:00 PM 65 °F 45 °F 36% 30.26 in 12 mi ENE 9.2 mph - -  
4:55 PM 60.8 °F 44.6 °F 55% 30.24 in - NE 10.4 mph 24.2 mph N/A   Clear
5:00 PM 62 °F 44 °F 40% 30.26 in 12 mi NE 10.4 mph - -  
5:55 PM 59.0 °F 42.8 °F 55% 30.24 in - NE 10.4 mph 25.3 mph N/A   Clear
6:00 PM 59 °F 43 °F 44% 30.26 in 12 mi NE 10.4 mph - -  
6:55 PM 57.2 °F 42.8 °F 59% 30.24 in - NE 11.5 mph 23.0 mph N/A   Clear
7:00 PM 58 °F 42 °F 45% 30.26 in 12 mi NE 11.5 mph - -  
7:55 PM 57.2 °F 42.8 °F 59% 30.24 in - East 13.8 mph 27.6 mph N/A   Clear
8:00 PM 57 °F 42 °F 46% 30.27 in 12 mi East 13.8 mph - -  
8:55 PM 57.2 °F 42.8 °F 59% 30.24 in - ENE 13.8 mph 25.3 mph N/A   Clear
9:00 PM 57 °F 43 °F 48% 30.27 in 12 mi ENE 13.8 mph - -  
9:55 PM 57.2 °F 42.8 °F 59% 30.27 in - NE 12.7 mph - N/A   Clear
10:00 PM 57 °F 42 °F 47% 30.27 in 12 mi NE 12.7 mph - -  
10:55 PM 57.2 °F 42.8 °F 59% 30.27 in - NE 16.1 mph 27.6 mph N/A   Clear
11:00 PM 56 °F 42 °F 50% 30.27 in 12 mi NE 16.1 mph - -  
11:55 PM 57.2 °F 42.8 °F 59% 30.24 in - NE 11.5 mph 23.0 mph N/A   Clear